BEIDOU-2 G7 (41586 NORAD) Tracking and Keplerian Element Data

This shows tracking and keplerian element data for the satellite.

Feedback or suggestion? Click here.




ElementValue
Catalog41586
NameBEIDOU-2 G7
Epoch Orbit2315
Epoch Day269.8110142
Epoch Year2022
RAAN68.0354
Inclination1.5949
Eccentricity0.0007706
Argument of Perigee353.7984
Mean Anonmoly346.2709
Mean Motion1.00268768
Decay Rate-3.5E-06
L11 41586U 16037A 22269.81101420 -.00000350 00000+0 00000+0 0 9996
L22 41586 1.5949 68.0354 0007706 353.7984 346.2709 1.00268768 23159

Live tracking and technical data element details for BEIDOU-2 G7 (NORAD 41586). BEIDOU-2 G7 can be tracked NOW for your location showing map with azimuth and elevation plus other details from your city location.

Track the satellite on the map from your city or location and see movement details for azimuth, elevation, latitude, longitude, range, height, and movement on the map or in text.







IsCatalogInMostPopularTable: catalog: 41586, numindb: 653
Update: records affected: 1



GetName: 41586 BEIDOU-2 G7

Hit Count: updated at: Thu, 29 Sep 2022 11:49:38 GMT